When you browse on this site, cookies collect data to enhance your experience and personalize the content and advertising you see.
Visit our Privacy Policy to learn more. By continuing to use the site, you agree to this use of cookies and data.
  • In Hungary
  • List of Countries
  • For 7 days
  • Water Temperature
  • Satellite Maps
  • Weather Map
  • News
  • Weather Widgets
  • user-avatar
    Login

    Hourly Weather Oleiros

    Today, 21 November, Wednesday

    Time Temperature Precipitation Wind Pressure Humidity
    00:00 +8°C° 0 mm 1 mps 746 mmHg 95%
    01:00 +8°C° 0 mm 1 mps 746 mmHg 96%
    02:00 +7°C° 0 mm 2 mps 746 mmHg 96%
    03:00 +7°C° 0.1 mm 2 mps 746 mmHg 95%
    04:00 +7°C° 0.1 mm 2 mps 746 mmHg 95%
    05:00 +7°C° 0.1 mm 2 mps 746 mmHg 95%
    06:00 +8°C° 0.3 mm 3 mps 746 mmHg 94%
    07:00 +8°C° 0.3 mm 3 mps 746 mmHg 94%
    08:00 +9°C° 0.3 mm 3 mps 746 mmHg 93%
    09:00 +10°C° 0.8 mm 4 mps 746 mmHg 91%
    10:00 +9°C° 0.8 mm 5 mps 747 mmHg 88%
    11:00 +10°C° 0.8 mm 5 mps 747 mmHg 86%
    12:00 +10°C° 0.6 mm 5 mps 747 mmHg 86%
    13:00 +10°C° 0.6 mm 6 mps 747 mmHg 86%
    14:00 +10°C° 0.6 mm 6 mps 747 mmHg 86%
    15:00 +9°C° 0.1 mm 5 mps 747 mmHg 89%
    16:00 +8°C° 0.1 mm 5 mps 748 mmHg 91%
    17:00 +7°C° 0.1 mm 5 mps 748 mmHg 93%
    18:00 +7°C° 0.2 mm 5 mps 748 mmHg 93%
    19:00 +7°C° 0.2 mm 5 mps 749 mmHg 92%
    20:00 +7°C° 0.2 mm 5 mps 749 mmHg 92%
    21:00 +7°C° 0.2 mm 5 mps 749 mmHg 92%
    22:00 +7°C° 0.2 mm 5 mps 749 mmHg 91%
    23:00 +7°C° 0.2 mm 5 mps 749 mmHg 91%

    Tomorrow, 22 November, Thursday

    Time Temperature Precipitation Wind Pressure Humidity
    00:00 +7°C° 0.1 mm 5 mps 750 mmHg 91%
    01:00 +7°C° 0.1 mm 6 mps 750 mmHg 91%
    02:00 +7°C° 0.1 mm 6 mps 750 mmHg 91%
    03:00 +7°C° 0.1 mm 6 mps 750 mmHg 91%
    04:00 +7°C° 0.1 mm 6 mps 750 mmHg 91%
    05:00 +7°C° 0.1 mm 6 mps 750 mmHg 91%
    06:00 +7°C° 0 mm 6 mps 750 mmHg 90%
    07:00 +8°C° 0 mm 6 mps 750 mmHg 88%
    08:00 +8°C° 0 mm 6 mps 750 mmHg 86%
    09:00 +9°C° 0.1 mm 6 mps 751 mmHg 81%
    10:00 +10°C° 0.1 mm 7 mps 751 mmHg 77%
    11:00 +11°C° 0.1 mm 7 mps 751 mmHg 72%
    12:00 +11°C° 0.2 mm 7 mps 751 mmHg 72%
    13:00 +11°C° 0.2 mm 6 mps 750 mmHg 72%
    14:00 +11°C° 0.2 mm 6 mps 750 mmHg 72%
    15:00 +10°C° 0.4 mm 5 mps 751 mmHg 78%
    16:00 +9°C° 0.4 mm 5 mps 751 mmHg 85%
    17:00 +8°C° 0.4 mm 4 mps 751 mmHg 91%
    18:00 +8°C° 0.4 mm 4 mps 752 mmHg 93%
    19:00 +9°C° 0.4 mm 3 mps 752 mmHg 94%
    20:00 +8°C° 0.4 mm 3 mps 752 mmHg 95%
    21:00 +8°C° 0.1 mm 3 mps 752 mmHg 96%
    22:00 +8°C° 0.1 mm 3 mps 752 mmHg 96%
    23:00 +7°C° 0.1 mm 3 mps 753 mmHg 97%

    Day after tomorrow, 23 November, Friday

    Time Temperature Precipitation Wind Pressure Humidity
    00:00 +7°C° 0.1 mm 3 mps 752 mmHg 97%
    01:00 +6°C° 0.1 mm 4 mps 752 mmHg 97%
    02:00 +6°C° 0.1 mm 4 mps 752 mmHg 96%
    03:00 +6°C° 0.2 mm 4 mps 752 mmHg 96%
    04:00 +7°C° 0.2 mm 5 mps 752 mmHg 95%
    05:00 +7°C° 0.2 mm 5 mps 752 mmHg 94%
    06:00 +7°C° 0.8 mm 5 mps 752 mmHg 94%
    07:00 +7°C° 0.8 mm 6 mps 752 mmHg 94%
    08:00 +8°C° 0.8 mm 6 mps 752 mmHg 94%
    09:00 +8°C° 1 mm 6 mps 752 mmHg 93%
    10:00 +8°C° 1 mm 6 mps 752 mmHg 93%
    11:00 +8°C° 1 mm 6 mps 752 mmHg 93%
    12:00 +9°C° 0.8 mm 6 mps 752 mmHg 93%
    13:00 +9°C° 0.8 mm 6 mps 752 mmHg 92%
    14:00 +9°C° 0.8 mm 6 mps 752 mmHg 92%
    15:00 +9°C° 0.4 mm 5 mps 752 mmHg 93%
    16:00 +8°C° 0.4 mm 5 mps 752 mmHg 94%
    17:00 +8°C° 0.4 mm 5 mps 753 mmHg 95%
    18:00 +8°C° 0.2 mm 4 mps 753 mmHg 95%
    19:00 +8°C° 0.2 mm 4 mps 753 mmHg 96%
    20:00 +8°C° 0.2 mm 4 mps 754 mmHg 97%
    21:00 +8°C° 0.3 mm 4 mps 754 mmHg 96%
    22:00 +8°C° 0.3 mm 4 mps 754 mmHg 96%
    23:00 +8°C° 0.3 mm 4 mps 754 mmHg 96%

    24 November, Saturday

    Time Temperature Precipitation Wind Pressure Humidity
    00:00 +8°C° 0.2 mm 4 mps 754 mmHg 96%
    01:00 +8°C° 0.2 mm 4 mps 754 mmHg 96%
    02:00 +8°C° 0.2 mm 4 mps 754 mmHg 96%
    03:00 +8°C° 0.2 mm 4 mps 754 mmHg 96%
    04:00 +8°C° 0.2 mm 4 mps 753 mmHg 96%
    05:00 +8°C° 0.2 mm 4 mps 753 mmHg 96%
    06:00 +8°C° 0.1 mm 4 mps 753 mmHg 95%
    07:00 +8°C° 0.1 mm 5 mps 754 mmHg 94%
    08:00 +9°C° 0.1 mm 5 mps 754 mmHg 93%
    09:00 +10°C° 0.1 mm 5 mps 753 mmHg 91%
    10:00 +10°C° 0.1 mm 6 mps 753 mmHg 89%
    11:00 +11°C° 0.1 mm 6 mps 753 mmHg 87%
    12:00 +11°C° 0.1 mm 6 mps 752 mmHg 86%
    13:00 +11°C° 0.1 mm 7 mps 751 mmHg 85%
    14:00 +11°C° 0.1 mm 7 mps 751 mmHg 84%
    15:00 +11°C° 1.6 mm 7 mps 750 mmHg 86%
    16:00 +11°C° 1.6 mm 7 mps 750 mmHg 88%
    17:00 +10°C° 1.6 mm 7 mps 749 mmHg 90%
    18:00 +10°C° 2.2 mm 7 mps 749 mmHg 90%
    19:00 +10°C° 2.2 mm 6 mps 749 mmHg 91%
    20:00 +10°C° 2.2 mm 6 mps 749 mmHg 92%
    21:00 +11°C° 0.6 mm 6 mps 749 mmHg 92%
    22:00 +11°C° 0.6 mm 7 mps 749 mmHg 93%
    23:00 +11°C° 0.6 mm 7 mps 749 mmHg 93%

    25 November, Sunday

    Time Temperature Precipitation Wind Pressure Humidity
    00:00 +11°C° 0.1 mm 6 mps 748 mmHg 93%
    01:00 +13°C° 0.1 mm 6 mps 748 mmHg 93%
    02:00 +13°C° 0.1 mm 6 mps 748 mmHg 93%
    03:00 +13°C° 0.2 mm 6 mps 748 mmHg 94%
    04:00 +13°C° 0.2 mm 5 mps 748 mmHg 94%
    05:00 +13°C° 0.2 mm 5 mps 749 mmHg 95%
    06:00 +13°C° 0.2 mm 5 mps 749 mmHg 95%
    07:00 +13°C° 0.2 mm 5 mps 749 mmHg 95%
    08:00 +13°C° 0.2 mm 4 mps 750 mmHg 96%
    09:00 +14°C° 0.1 mm 4 mps 750 mmHg 95%
    10:00 +14°C° 0.1 mm 5 mps 750 mmHg 94%
    11:00 +14°C° 0.1 mm 5 mps 750 mmHg 93%
    12:00 +14°C° 0.5 mm 5 mps 749 mmHg 94%
    13:00 +14°C° 0.5 mm 4 mps 749 mmHg 95%
    14:00 +14°C° 0.5 mm 4 mps 748 mmHg 95%
    15:00 +13°C° 0.8 mm 5 mps 748 mmHg 95%
    16:00 +13°C° 0.8 mm 5 mps 748 mmHg 95%
    17:00 +13°C° 0.8 mm 6 mps 747 mmHg 95%
    18:00 +12°C° 1.6 mm 7 mps 748 mmHg 94%
    19:00 +11°C° 1.6 mm 8 mps 748 mmHg 92%
    20:00 +11°C° 1.6 mm 9 mps 748 mmHg 90%
    21:00 +10°C° 0.2 mm 9 mps 750 mmHg 89%
    22:00 +9°C° 0.2 mm 8 mps 751 mmHg 87%
    23:00 +7°C° 0.2 mm 8 mps 752 mmHg 86%

    26 November, Monday

    Time Temperature Precipitation Wind Pressure Humidity
    00:00 +7°C° 0.1 mm 8 mps 753 mmHg 85%
    01:00 +7°C° 0.1 mm 9 mps 753 mmHg 85%
    02:00 +6°C° 0.1 mm 9 mps 754 mmHg 84%
    03:00 +7°C° 0.1 mm 9 mps 754 mmHg 84%
    04:00 +7°C° 0.1 mm 8 mps 754 mmHg 84%
    05:00 +7°C° 0.1 mm 8 mps 755 mmHg 84%
    06:00 +8°C° 0.1 mm 7 mps 755 mmHg 85%
    07:00 +8°C° 0.1 mm 7 mps 756 mmHg 86%
    08:00 +9°C° 0.1 mm 6 mps 757 mmHg 87%
    09:00 +10°C° 0.1 mm 6 mps 757 mmHg 83%
    10:00 +10°C° 0.1 mm 6 mps 757 mmHg 79%
    11:00 +11°C° 0.1 mm 6 mps 757 mmHg 76%
    12:00 +11°C° 0.1 mm 7 mps 756 mmHg 76%
    13:00 +11°C° 0.1 mm 7 mps 756 mmHg 76%
    14:00 +11°C° 0.1 mm 7 mps 756 mmHg 76%
    15:00 +11°C° 0.5 mm 8 mps 755 mmHg 79%
    16:00 +11°C° 0.5 mm 8 mps 755 mmHg 82%
    17:00 +10°C° 0.5 mm 9 mps 755 mmHg 85%
    18:00 +10°C° 2.2 mm 9 mps 755 mmHg 88%
    19:00 +10°C° 2.2 mm 9 mps 755 mmHg 91%
    20:00 +10°C° 2.2 mm 9 mps 754 mmHg 94%
    21:00 +10°C° 4 mm 9 mps 754 mmHg 94%
    22:00 +11°C° 4 mm 9 mps 753 mmHg 95%
    23:00 +11°C° 4 mm 9 mps 753 mmHg 96%
    Show more